When you browse on this site, cookies collect data to enhance your experience and personalize the content and advertising you see.
Visit our Privacy Policy to learn more. By continuing to use the site, you agree to this use of cookies and data.
  • In Hungary
  • List of Countries
  • For 7 days
  • Water Temperature
  • Satellite Maps
  • Weather Map
  • News
  • Weather Widgets
  • user-avatar
    Login

    Hourly Weather Fontaine

    Today, 25 March, Monday

    Time Temperature Precipitation Wind Pressure Humidity
    00:00 +7°C° 0 mm 1 mps 705 mmHg 96%
    01:00 +7°C° 0 mm 1 mps 704 mmHg 96%
    02:00 +7°C° 0 mm 1 mps 704 mmHg 95%
    03:00 +6°C° 0 mm 2 mps 704 mmHg 95%
    04:00 +6°C° 0.1 mm 2 mps 704 mmHg 94%
    05:00 +6°C° 0.1 mm 2 mps 704 mmHg 94%
    06:00 +6°C° 0 mm 2 mps 704 mmHg 94%
    07:00 +6°C° 0.1 mm 2 mps 703 mmHg 92%
    08:00 +7°C° 0.1 mm 3 mps 703 mmHg 89%
    09:00 +7°C° 0.1 mm 3 mps 703 mmHg 87%
    10:00 +7°C° 0.1 mm 3 mps 703 mmHg 83%
    11:00 +7°C° 0.1 mm 4 mps 702 mmHg 79%
    12:00 +8°C° 0.1 mm 4 mps 702 mmHg 75%
    13:00 +8°C° 0 mm 4 mps 702 mmHg 69%
    14:00 +9°C° 0 mm 5 mps 702 mmHg 63%
    15:00 +9°C° 0 mm 5 mps 702 mmHg 57%
    16:00 +8°C° 0 mm 5 mps 702 mmHg 62%
    17:00 +6°C° 0 mm 5 mps 701 mmHg 67%
    18:00 +4°C° 0 mm 4 mps 701 mmHg 72%
    19:00 +2°C° 0 mm 5 mps 702 mmHg 73%
    20:00 +2°C° 0 mm 5 mps 702 mmHg 73%
    21:00 +1°C° 0 mm 5 mps 703 mmHg 74%
    22:00 0°C° 0 mm 5 mps 703 mmHg 74%
    23:00 0°C° 0 mm 5 mps 703 mmHg 74%

    Tomorrow, 26 March, Tuesday

    Time Temperature Precipitation Wind Pressure Humidity
    00:00 0°C° 0 mm 5 mps 703 mmHg 74%
    01:00 -1°C° 0 mm 5 mps 703 mmHg 75%
    02:00 -1°C° 0 mm 5 mps 703 mmHg 75%
    03:00 -1°C° 0 mm 5 mps 704 mmHg 75%
    04:00 -1°C° 0 mm 5 mps 704 mmHg 76%
    05:00 -2°C° 0 mm 4 mps 704 mmHg 77%
    06:00 -1°C° 0 mm 3 mps 705 mmHg 78%
    07:00 0°C° 0 mm 4 mps 705 mmHg 70%
    08:00 +1°C° 0 mm 4 mps 706 mmHg 62%
    09:00 +4°C° 0 mm 4 mps 706 mmHg 54%
    10:00 +5°C° 0 mm 4 mps 706 mmHg 48%
    11:00 +7°C° 0 mm 4 mps 706 mmHg 43%
    12:00 +8°C° 0 mm 5 mps 706 mmHg 37%
    13:00 +8°C° 0 mm 5 mps 705 mmHg 37%
    14:00 +8°C° 0 mm 5 mps 705 mmHg 37%
    15:00 +9°C° 0 mm 5 mps 705 mmHg 37%
    16:00 +7°C° 0 mm 4 mps 705 mmHg 46%
    17:00 +5°C° 0 mm 3 mps 705 mmHg 54%
    18:00 +5°C° 0 mm 2 mps 705 mmHg 63%
    19:00 +4°C° 0 mm 2 mps 706 mmHg 67%
    20:00 +4°C° 0 mm 1 mps 706 mmHg 72%
    21:00 +3°C° 0 mm 1 mps 706 mmHg 77%
    22:00 +2°C° 0 mm 1 mps 707 mmHg 78%
    23:00 +2°C° 0 mm 1 mps 707 mmHg 79%

    Day after tomorrow, 27 March, Wednesday

    Time Temperature Precipitation Wind Pressure Humidity
    00:00 +1°C° 0 mm 0 mps 707 mmHg 81%
    01:00 0°C° 0 mm 0 mps 707 mmHg 81%
    02:00 0°C° 0 mm 0 mps 707 mmHg 81%
    03:00 0°C° 0 mm 0 mps 707 mmHg 81%
    04:00 +1°C° 0 mm 1 mps 707 mmHg 81%
    05:00 +1°C° 0 mm 1 mps 707 mmHg 81%
    06:00 +1°C° 0 mm 1 mps 707 mmHg 80%
    07:00 +3°C° 0 mm 1 mps 707 mmHg 73%
    08:00 +4°C° 0 mm 2 mps 707 mmHg 65%
    09:00 +6°C° 0 mm 2 mps 707 mmHg 57%
    10:00 +7°C° 0 mm 2 mps 707 mmHg 54%
    11:00 +8°C° 0 mm 3 mps 707 mmHg 50%
    12:00 +10°C° 0 mm 3 mps 707 mmHg 47%
    13:00 +10°C° 0 mm 3 mps 707 mmHg 47%
    14:00 +10°C° 0 mm 3 mps 707 mmHg 47%
    15:00 +11°C° 0 mm 3 mps 707 mmHg 47%
    16:00 +9°C° 0 mm 2 mps 707 mmHg 56%
    17:00 +7°C° 0 mm 2 mps 707 mmHg 66%
    18:00 +6°C° 0 mm 1 mps 707 mmHg 75%
    19:00 +5°C° 0 mm 1 mps 707 mmHg 78%
    20:00 +5°C° 0 mm 1 mps 708 mmHg 81%
    21:00 +3°C° 0 mm 0 mps 708 mmHg 84%
    22:00 +3°C° 0 mm 0 mps 708 mmHg 83%
    23:00 +2°C° 0 mm 0 mps 708 mmHg 83%

    28 March, Thursday

    Time Temperature Precipitation Wind Pressure Humidity
    00:00 +2°C° 0 mm 0 mps 708 mmHg 83%
    01:00 +2°C° 0 mm 0 mps 708 mmHg 84%
    02:00 +2°C° 0 mm 0 mps 709 mmHg 84%
    03:00 +1°C° 0 mm 0 mps 709 mmHg 85%
    04:00 +1°C° 0 mm 0 mps 709 mmHg 84%
    05:00 +1°C° 0 mm 0 mps 709 mmHg 84%
    06:00 +1°C° 0 mm 0 mps 709 mmHg 84%
    07:00 +5°C° 0 mm 1 mps 709 mmHg 76%
    08:00 +7°C° 0 mm 1 mps 710 mmHg 67%
    09:00 +9°C° 0 mm 1 mps 710 mmHg 59%
    10:00 +10°C° 0 mm 1 mps 710 mmHg 57%
    11:00 +10°C° 0 mm 2 mps 710 mmHg 55%
    12:00 +13°C° 0 mm 2 mps 710 mmHg 53%
    13:00 +13°C° 0 mm 2 mps 709 mmHg 54%
    14:00 +13°C° 0 mm 2 mps 709 mmHg 55%
    15:00 +13°C° 0 mm 2 mps 709 mmHg 55%
    16:00 +11°C° 0 mm 1 mps 709 mmHg 63%
    17:00 +9°C° 0 mm 1 mps 709 mmHg 71%
    18:00 +7°C° 0 mm 0 mps 709 mmHg 78%
    19:00 +6°C° 0 mm 0 mps 709 mmHg 79%
    20:00 +7°C° 0 mm 1 mps 709 mmHg 79%
    21:00 +6°C° 0 mm 1 mps 710 mmHg 79%
    22:00 +6°C° 0 mm 1 mps 710 mmHg 78%
    23:00 +6°C° 0 mm 1 mps 710 mmHg 77%

    29 March, Friday

    Time Temperature Precipitation Wind Pressure Humidity
    00:00 +6°C° 0 mm 1 mps 710 mmHg 76%
    01:00 +5°C° 0 mm 1 mps 710 mmHg 76%
    02:00 +5°C° 0 mm 1 mps 710 mmHg 76%
    03:00 +5°C° 0 mm 1 mps 710 mmHg 76%
    04:00 +5°C° 0 mm 1 mps 710 mmHg 75%
    05:00 +5°C° 0 mm 1 mps 710 mmHg 75%
    06:00 +5°C° 0 mm 1 mps 711 mmHg 75%
    07:00 +8°C° 0 mm 1 mps 711 mmHg 69%
    08:00 +11°C° 0 mm 1 mps 711 mmHg 63%
    09:00 +12°C° 0 mm 0 mps 712 mmHg 57%
    10:00 +14°C° 0 mm 1 mps 711 mmHg 55%
    11:00 +15°C° 0 mm 1 mps 711 mmHg 53%
    12:00 +16°C° 0 mm 1 mps 711 mmHg 51%
    13:00 +15°C° 0.1 mm 1 mps 710 mmHg 52%
    14:00 +15°C° 0.1 mm 1 mps 710 mmHg 53%
    15:00 +15°C° 0.1 mm 1 mps 710 mmHg 54%
    16:00 +13°C° 0.2 mm 1 mps 710 mmHg 61%
    17:00 +11°C° 0.2 mm 1 mps 710 mmHg 68%
    18:00 +9°C° 0.2 mm 0 mps 709 mmHg 75%
    19:00 +8°C° 0 mm 0 mps 710 mmHg 76%
    20:00 +9°C° 0 mm 1 mps 710 mmHg 76%
    21:00 +8°C° 0 mm 1 mps 711 mmHg 77%
    22:00 +8°C° 0 mm 1 mps 711 mmHg 77%
    23:00 +7°C° 0 mm 1 mps 711 mmHg 77%

    30 March, Saturday

    Time Temperature Precipitation Wind Pressure Humidity
    00:00 +7°C° 0 mm 1 mps 711 mmHg 77%
    01:00 +7°C° 0 mm 1 mps 711 mmHg 76%
    02:00 +6°C° 0 mm 1 mps 710 mmHg 76%
    03:00 +6°C° 0 mm 1 mps 710 mmHg 75%
    04:00 +6°C° 0 mm 1 mps 710 mmHg 75%
    05:00 +6°C° 0 mm 1 mps 710 mmHg 74%
    06:00 +6°C° 0 mm 1 mps 710 mmHg 73%
    07:00 +8°C° 0 mm 1 mps 710 mmHg 66%
    08:00 +11°C° 0 mm 1 mps 710 mmHg 59%
    09:00 +13°C° 0 mm 1 mps 710 mmHg 52%
    10:00 +14°C° 0 mm 1 mps 710 mmHg 50%
    11:00 +15°C° 0 mm 1 mps 710 mmHg 48%
    12:00 +15°C° 0 mm 1 mps 709 mmHg 45%
    13:00 +15°C° 0 mm 1 mps 709 mmHg 47%
    14:00 +15°C° 0 mm 1 mps 708 mmHg 48%
    15:00 +15°C° 0 mm 1 mps 707 mmHg 49%
    16:00 +13°C° 0.1 mm 1 mps 707 mmHg 58%
    17:00 +11°C° 0.1 mm 1 mps 707 mmHg 67%
    18:00 +10°C° 0.1 mm 1 mps 707 mmHg 75%
    19:00 +9°C° 0 mm 1 mps 707 mmHg 78%
    20:00 +8°C° 0 mm 1 mps 707 mmHg 80%
    21:00 +8°C° 0 mm 1 mps 707 mmHg 83%
    22:00 +7°C° 0 mm 1 mps 707 mmHg 84%
    23:00 +7°C° 0 mm 1 mps 706 mmHg 85%
    Show more